Location: Newark
(52.8300°N, 8.0000°E)
Time: 01:40:43
(UTC+00:00)

STARLINK-1107 - Pass Details

Date: 30 January 2020
Orbit: 345 x 354 km, 53.0° (Epoch: 22 February)

Event Time Altitude Azimuth Distance (km) Brightness Sun altitude
Rises 18:01:00 0° 283° (WNW) 2,193 8.0 -16.9°
Reaches altitude 10° 18:03:14 10° 269° (W) 1,344 6.9 -17.3°
Maximum altitude 18:05:45 24° 212° (SSW) 789 4.8 -17.6°
Enters shadow 18:07:21 16° 167° (SSE) 1,050 5.0 -17.9°
